Location: *
(18.5200°S, 46.4500°E)
Time: 16:18:11
(UTC+00:00)

Sakura Rocket - Pass Details

Date: 19 July 2019
Orbit: 476 x 1744 km, 28.7° (Epoch: 23 August)

Event Time Altitude Azimuth Distance (km) Brightness Sun altitude
Rises 15:24:57 0° 239° (WSW) 2,581 6.9 -12.0°
Reaches altitude 10° 15:27:16 10° 224° (SW) 1,770 5.8 -12.5°
Maximum altitude 15:30:40 26° 166° (SSE) 1,189 4.2 -13.2°
Enters shadow 15:32:41 19° 128° (SE) 1,524 4.5 -13.7°
